Total_Precipitation_Accumulation
0.00 0.00 0.00 0.00 0.01 0.01 0.02 0.03 0.05 0.08 0.09 0.09 0.11 0.11 0.12 0.11 0.09 0.10 0.09 0.10 0.10 0.09 0.09 0.16 0.32 0.64 0.94 1.01 1.07 1.00 0.89 0.83 0.70 0.56 0.54 0.66 0.75 0.72 0.67 0.72 0.65 0.49 0.42
0.00 0.00 0.00 0.00 0.00 0.00 0.00 0.00 0.01 0.02 0.02 0.03 0.04 0.05 0.07 0.08 0.08 0.11 0.12 0.14 0.13 0.11 0.10 0.11 0.18 0.37 0.70 0.94 1.11 1.29 1.14 1.00 0.94 0.77 0.58 0.57 0.67 0.71 0.72 0.71 0.75 0.65 0.50
0.00 0.00 0.00 0.00 0.00 0.00 0.00 0.00 0.00 0.00 0.00 0.01 0.01 0.01 0.02 0.03 0.05 0.07 0.09 0.13 0.17 0.15 0.13 0.11 0.12 0.20 0.39 0.67 0.94 1.26 1.45 1.23 1.15 1.10 0.87 0.63 0.60 0.66 0.71 0.75 0.77 0.81 0.68
0.00 0.00 0.00 0.00 0.00 0.00 0.00 0.00 0.00 0.00 0.00 0.00 0.00 0.00 0.00 0.00 0.01 0.02 0.05 0.08 0.14 0.17 0.15 0.15 0.14 0.15 0.23 0.40 0.65 1.00 1.58 1.57 1.40 1.34 1.31 1.00 0.72 0.66 0.66 0.72 0.79 0.83 0.89
0.00 0.00 0.00 0.00 0.00 0.00 0.00 0.00 0.00 0.00 0.00 0.00 0.00 0.00 0.00 0.00 0.00 0.00 0.01 0.03 0.06 0.13 0.17 0.17 0.18 0.17 0.17 0.23 0.42 0.73 1.36 1.73 1.74 1.69 1.66 1.50 1.11 0.83 0.73 0.71 0.78 0.84 0.91
0.00 0.00 0.00 0.00 0.00 0.00 0.00 0.00 0.00 0.00 0.00 0.00 0.00 0.00 0.00 0.00 0.00 0.00 0.00 0.01 0.02 0.04 0.11 0.15 0.18 0.18 0.16 0.16 0.22 0.39 0.80 1.28 1.57 1.75 1.81 1.88 1.69 1.22 0.90 0.79 0.78 0.87 0.92
0.00 0.00 0.00 0.00 0.00 0.00 0.00 0.00 0.00 0.00 0.00 0.01 0.02 0.01 0.00 0.00 0.00 0.00 0.00 0.00 0.01 0.01 0.04 0.08 0.15 0.20 0.19 0.17 0.16 0.19 0.36 0.73 1.13 1.41 1.59 1.78 2.01 1.81 1.31 0.99 0.87 0.88 0.98
0.00 0.00 0.00 0.00 0.00 0.00 0.00 0.00 0.00 0.01 0.01 0.01 0.05 0.09 0.05 0.01 0.00 0.00 0.00 0.00 0.00 0.01 0.02 0.04 0.08 0.15 0.20 0.20 0.14 0.13 0.17 0.37 0.75 1.16 1.42 1.59 1.86 2.12 1.89 1.38 1.09 1.01 1.05
0.00 0.00 0.00 0.00 0.00 0.00 0.00 0.00 0.01 0.02 0.03 0.02 0.04 0.18 0.28 0.16 0.05 0.01 0.00 0.01 0.01 0.01 0.01 0.02 0.05 0.08 0.14 0.21 0.19 0.13 0.11 0.18 0.40 0.78 1.25 1.56 1.76 2.05 2.19 1.91 1.46 1.20 1.16
0.00 0.00 0.00 0.00 0.00 0.00 0.01 0.01 0.01 0.02 0.06 0.08 0.05 0.08 0.18 0.25 0.28 0.13 0.02 0.02 0.03 0.03 0.02 0.02 0.03 0.05 0.08 0.15 0.21 0.21 0.16 0.15 0.24 0.50 0.90 1.45 1.84 2.05 2.36 2.29 1.94 1.51 1.30
0.00 0.00 0.00 0.00 0.00 0.00 0.01 0.01 0.02 0.03 0.06 0.11 0.12 0.11 0.09 0.09 0.15 0.25 0.11 0.03 0.04 0.04 0.04 0.03 0.03 0.04 0.05 0.10 0.15 0.20 0.24 0.25 0.33 0.44 0.68 1.14 1.84 2.16 2.53 2.70 2.35 1.83 1.46
0.01 0.01 0.00 0.00 0.00 0.01 0.01 0.02 0.03 0.04 0.06 0.08 0.11 0.13 0.17 0.19 0.16 0.21 0.20 0.07 0.03 0.03 0.04 0.04 0.05 0.07 0.09 0.10 0.12 0.21 0.28 0.33 0.43 0.48 0.52 0.79 1.36 2.04 2.46 2.77 2.62 2.10 1.64
0.02 0.01 0.00 0.00 0.00 0.01 0.02 0.03 0.05 0.05 0.06 0.09 0.11 0.12 0.14 0.16 0.16 0.22 0.26 0.15 0.07 0.02 0.02 0.03 0.05 0.08 0.11 0.13 0.14 0.19 0.24 0.30 0.37 0.42 0.41 0.50 0.80 1.37 2.05 2.58 2.86 2.58 2.03
0.02 0.01 0.00 0.00 0.01 0.01 0.02 0.04 0.05 0.07 0.08 0.09 0.10 0.12 0.16 0.13 0.16 0.22 0.29 0.33 0.26 0.09 0.02 0.02 0.02 0.04 0.09 0.14 0.14 0.16 0.15 0.21 0.27 0.31 0.35 0.38 0.51 0.82 1.35 1.98 2.72 3.16 2.83
0.01 0.00 0.00 0.00 0.01 0.02 0.04 0.05 0.07 0.08 0.09 0.12 0.14 0.16 0.19 0.17 0.17 0.20 0.24 0.35 0.51 0.37 0.09 0.02 0.02 0.03 0.08 0.13 0.13 0.12 0.11 0.13 0.19 0.23 0.27 0.31 0.38 0.55 0.85 1.32 1.88 2.76 3.33
0.00 0.00 0.00 0.01 0.03 0.04 0.05 0.07 0.08 0.09 0.12 0.14 0.18 0.20 0.21 0.21 0.24 0.26 0.28 0.29 0.37 0.46 0.27 0.03 0.02 0.04 0.09 0.16 0.17 0.13 0.13 0.14 0.16 0.18 0.19 0.21 0.25 0.36 0.56 0.87 1.26 1.80 2.66
0.00 0.00 0.01 0.03 0.06 0.07 0.08 0.10 0.10 0.12 0.15 0.15 0.18 0.22 0.24 0.26 0.33 0.35 0.38 0.37 0.33 0.37 0.37 0.09 0.02 0.04 0.12 0.20 0.19 0.14 0.14 0.13 0.11 0.13 0.16 0.18 0.20 0.27 0.40 0.60 0.84 1.16 1.76
0.00 0.00 0.02 0.05 0.09 0.11 0.11 0.14 0.15 0.15 0.18 0.19 0.21 0.25 0.28 0.30 0.36 0.40 0.48 0.49 0.41 0.35 0.40 0.24 0.06 0.04 0.12 0.23 0.26 0.20 0.17 0.15 0.11 0.12 0.15 0.18 0.22 0.27 0.34 0.45 0.61 0.82 1.15
0.00 0.00 0.02 0.07 0.15 0.21 0.19 0.16 0.20 0.21 0.20 0.22 0.25 0.31 0.35 0.39 0.38 0.41 0.51 0.55 0.49 0.41 0.40 0.36 0.16 0.07 0.10 0.22 0.32 0.30 0.25 0.23 0.18 0.14 0.15 0.17 0.21 0.26 0.30 0.35 0.47 0.61 0.78
0.00 0.01 0.02 0.06 0.17 0.30 0.33 0.34 0.37 0.32 0.26 0.21 0.19 0.24 0.36 0.49 0.54 0.58 0.59 0.57 0.58 0.58 0.52 0.46 0.30 0.17 0.15 0.22 0.38 0.43 0.37 0.32 0.27 0.22 0.19 0.17 0.20 0.25 0.27 0.28 0.29 0.39 0.57
0.00 0.01 0.01 0.03 0.14 0.40 0.65 0.82 0.74 0.47 0.31 0.23 0.17 0.19 0.31 0.51 0.67 0.85 0.91 0.79 0.77 0.81 0.74 0.66 0.54 0.39 0.30 0.33 0.42 0.47 0.52 0.44 0.40 0.33 0.24 0.19 0.19 0.19 0.20 0.24 0.28 0.32 0.40
0.01 0.01 0.01 0.02 0.08 0.36 0.73 0.96 0.70 0.37 0.26 0.22 0.20 0.20 0.27 0.47 0.60 0.68 0.79 0.80 0.84 0.97 1.02 0.92 0.77 0.61 0.44 0.38 0.40 0.50 0.62 0.65 0.56 0.46 0.35 0.27 0.25 0.23 0.20 0.19 0.23 0.27 0.32
0.01 0.01 0.01 0.02 0.03 0.19 0.56 0.83 0.58 0.29 0.21 0.19 0.19 0.18 0.22 0.34 0.45 0.54 0.57 0.57 0.62 0.75 0.95 1.03 0.96 0.72 0.58 0.47 0.52 0.58 0.60 0.67 0.62 0.64 0.59 0.48 0.35 0.30 0.25 0.27 0.29 0.27 0.31
0.01 0.01 0.02 0.02 0.02 0.09 0.43 0.72 0.52 0.25 0.17 0.16 0.17 0.15 0.12 0.20 0.33 0.49 0.58 0.54 0.51 0.60 0.82 1.01 1.16 0.99 0.80 0.74 0.82 0.88 0.84 0.74 0.68 0.79 0.79 0.79 0.63 0.45 0.37 0.34 0.34 0.29 0.30
0.02 0.02 0.02 0.02 0.02 0.04 0.28 0.67 0.54 0.24 0.15 0.14 0.16 0.15 0.10 0.12 0.25 0.39 0.42 0.39 0.35 0.44 0.56 0.75 0.84 0.84 0.77 0.81 0.96 1.17 1.14 0.98 0.85 0.95 0.95 0.89 0.93 0.82 0.73 0.60 0.50 0.41 0.34
0.02 0.02 0.02 0.02 0.02 0.02 0.15 0.55 0.62 0.26 0.15 0.12 0.13 0.12 0.13 0.16 0.22 0.27 0.28 0.31 0.39 0.41 0.39 0.41 0.43 0.45 0.49 0.58 0.81 1.14 1.31 1.19 1.01 1.10 1.16 1.00 1.07 1.06 1.18 1.06 0.77 0.55 0.43